星链-1826 (STARLINK-1826 )

导读

STARLINK-1826是美国太空探索技术公司(SpaceX)星链星座中的一颗卫星,星链旨在构建全球卫星互联网系统。它于2020年10月18日发射,作为低轨卫星,服务全球互联网覆盖,尤其支持偏远地区网络接入,同时也推动了全球卫星通信产业发展。

基本信息
目录编号:
46723
目录名称:
STARLINK-1826
国际标识:
2020-073BF
轨道中心:
EARTH
卫星名称:
星链-1826
卫星全名:
星链-1826 (STARLINK-1826 )
卫星状态:
在轨 (已飞行2065 天)
发射日期:
2020-10-18 UTC
国别 :
美国 (US)
星等 :
--
轨道信息
数据来源 国际轨道数据
星历时间: 2026-06-15T00:00:02+0800
4小时前
查看轨道信息
半长轴: 6704.519km
偏心率: 0.0006627
轨道倾角: 53.043°
近地点辐角 151.008°
升交点赤经 60.870°
平近点角 2.879°
近地点: 321.938km
远地点: 330.826km
周期: 91.057分钟
每日圈数: 15.814351
详细信息
固有亮度:
5
最大亮度:
2.5
卫星平台:
Starlink V1.0
覆盖范围:
全球
运营商:
太空探索技术公司
运营商所在国:
美国
制造商(研发单位):
太空探索技术公司
制造商所在国:
美国
使用方式:
暂无
卫星简介
星链(Starlink)计划是由太空探索技术公司(SpaceX)提出的一个巨型低轨卫星互联网星座项目,计划在2019年至2024年间在太空搭建由约1.2万颗卫星组成的“星链”网络,其中1584颗将部署在地球上空550千米处的近地轨道,并从2020年开始工作。该卫星仍在工作。
2D轨道图
3D轨道图
轨道高度分析图
轨道倾角分析图
轨道综合分析图
查看轨道综合分析图